This is the latest recevied weather packets stored in our database for station/object AC0MR. If no packets are shown the sender has not sent any weather packets the latest 10 day(s).
| Time | Temp. | Humidity | Pressure | Rain* | Wind** | Luminosity | Snow |
|---|---|---|---|---|---|---|---|
| 1777821918 | 15.56° C | 51% | 1008 hPa | 0 mm | - | 674 W/m² | - |
| 1777821318 | 15° C | 50% | 1008 hPa | 0 mm | - | 666 W/m² | - |
| 1777820718 | 15° C | 52% | 1008.1 hPa | 0 mm | - | 620 W/m² | - |
| 1777820118 | 14.44° C | 53% | 1008.3 hPa | 0 mm | - | 596 W/m² | - |
| 1777819518 | 13.89° C | 54% | 1008.5 hPa | 0 mm | - | 579 W/m² | - |
| 1777818918 | 13.33° C | 56% | 1008.6 hPa | 0 mm | - | 514 W/m² | - |
| 1777818318 | 12.78° C | 56% | 1008.8 hPa | 0 mm | - | 274 W/m² | - |
| 1777817718 | 12.22° C | 59% | 1008.9 hPa | 0 mm | - | 325 W/m² | - |
| 1777817118 | 11.67° C | 59% | 1009.2 hPa | 0 mm | - | 209 W/m² | - |
| 1777816518 | 11.11° C | 64% | 1009.2 hPa | 0 mm | - | 190 W/m² | - |
| 1777815918 | 10.56° C | 70% | 1009.3 hPa | 0 mm | - | 161 W/m² | - |
| 1777815318 | 10.56° C | 68% | 1009.5 hPa | 0 mm | - | 148 W/m² | - |
| 1777814718 | 10.56° C | 68% | 1009.5 hPa | 0 mm | - | 133 W/m² | - |
| 1777814118 | 10° C | 68% | 1009.3 hPa | 0 mm | - | 115 W/m² | - |
| 1777813518 | 10° C | 67% | 1009.6 hPa | 0 mm | - | 96 W/m² | - |
| 1777812918 | 9.44° C | 68% | 1010 hPa | 0 mm | - | 41 W/m² | - |
| 1777812318 | 9.44° C | 69% | 1010.2 hPa | 0 mm | - | 30 W/m² | - |
| 1777811718 | 9.44° C | 70% | 1010.3 hPa | 0 mm | - | 12 W/m² | - |
| 1777811120 | 9.44° C | 68% | 1010.8 hPa | 0 mm | - | 7 W/m² | - |
| 1777810519 | 8.89° C | 68% | 1010.7 hPa | 0 mm | - | 10 W/m² | - |
| 1777809920 | 8.89° C | 71% | 1010.6 hPa | 0 mm | - | 15 W/m² | - |
| 1777809318 | 8.89° C | 71% | 1010.7 hPa | 0 mm | - | 2 W/m² | - |
| 1777808719 | 8.89° C | 70% | 1011.3 hPa | 0 mm | - | 0 W/m² | - |
| 1777808119 | 9.44° C | 68% | 1011.3 hPa | 0 mm | - | 6 W/m² | - |
| 1777807520 | 9.44° C | 65% | 1011.6 hPa | 0 mm | - | 1 W/m² | - |
* Rain latest hour (hover to see other rain measurements)
** Current wind speed in m/s (hover to see current wind gust speed)